Weather reports worldwide

Advertisment
De Bilt, Netherlands (6260): temperature & dewpoint: 09.08.2020 21:00:00 - 15.08.2020 21:00:00 (CEST)De Bilt, Netherlands (6260): temperature 5cm & temperature -5cm: 09.08.2020 21:00:00 - 15.08.2020 21:00:00 (CEST)De Bilt, Netherlands (6260): temperature -20cm & temperature -100cm: 09.08.2020 21:00:00 - 15.08.2020 21:00:00 (CEST)De Bilt, Netherlands (6260): wind speed & gusts: 09.08.2020 21:00:00 - 15.08.2020 21:00:00 (CEST)De Bilt, Netherlands (6260): wind direction: 09.08.2020 21:00:00 - 15.08.2020 21:00:00 (CEST)De Bilt, Netherlands (6260): reduced air pressure: 09.08.2020 21:00:00 - 15.08.2020 21:00:00 (CEST)De Bilt, Netherlands (6260): visibility: 09.08.2020 21:00:00 - 15.08.2020 21:00:00 (CEST)De Bilt, Netherlands (6260): precipitation: 09.08.2020 21:00:00 - 15.08.2020 21:00:00 (CEST)
Date & Time tt [°C] td [°C] tt 5cm [°C] tt -5cm [°C] tt -20cm [°C] tt -100cm [°C] ff [km/h] ff [kn] fx [km/h] fx [kn] dd ppp [hPa] vv [km] rr [mm]
15.08.2020 21:00:00 23,3 19,6 23,1 23,5 21,4 17,3 7 4 18 10 ESE 1014,0 12 0,0
15.08.2020 20:00:00 23,6 20,6 23,7 23,7 21,2 17,3 7 4 14 8 NNE 1013,7 9 0,0
15.08.2020 19:00:00 23,4 19,2 23,2 23,8 21,1 17,3 7 4 14 8 N 1013,6 21 0,1
15.08.2020 18:00:00 27,2 18,7 30,2 23,5 20,9 17,3 14 8 22 12 NNW 1013,5 18 0,0
15.08.2020 17:00:00 28,2 17,4 31,9 23,1 20,8 17,3 7 4 14 8 W 1013,6 20 0,0
15.08.2020 16:00:00 27,1 17,4 31,7 22,8 20,7 17,3 7 4 11 6 E 1014,2 14 0,0
15.08.2020 15:00:00 26,1 17,8 27,9 22,4 20,6 17,2 4 2 11 6 WNW 1014,7 13 0,0
15.08.2020 14:00:00 26,6 18,2 30,5 21,9 20,5 17,2 7 4 14 8 NW 1015,0 11 0,0
15.08.2020 13:00:00 24,6 17,5 27,7 21,4 20,5 17,2 7 4 14 8 NE 1015,1 10 0,0
15.08.2020 12:00:00 24,2 18,0 26,9 21,0 20,5 17,2 7 4 11 6 NW 1015,1 8 0,0
15.08.2020 11:00:00 23,4 18,6 26,1 20,7 20,5 17,2 7 4 18 10 SW 1015,2 6 0,0
15.08.2020 10:00:00 22,3 18,5 23,0 20,6 20,6 17,2 4 2 14 8 WSW 1015,0 4,6 0,0
15.08.2020 09:00:00 20,8 18,2 21,2 20,7 20,7 17,2 7 4 14 8 SW 1015,0 3,1 0,0
15.08.2020 08:00:00 20,3 17,9 20,1 20,8 20,8 17,2 11 6 14 8 SW 1014,6 2,7 0,0
15.08.2020 07:00:00 20,0 18,5 19,7 20,9 20,8 17,2 7 4 11 6 SSW 1014,4 2,0 0,0
15.08.2020 06:00:00 19,9 18,6 19,8 21,1 20,9 17,2 4 2 7 4 WSW 1014,1 2,2 0,0
15.08.2020 05:00:00 19,8 18,6 19,8 21,2 21,0 17,2 7 4 11 6 WSW 1013,9 2,6 0,0
15.08.2020 04:00:00 20,1 18,7 20,0 21,4 21,1 17,2 11 6 14 8 W 1014,0 3,1 0,0
15.08.2020 03:00:00 20,3 19,0 19,9 21,6 21,2 17,2 4 2 11 6 WSW 1014,1 2,9 0,0
15.08.2020 02:00:00 21,1 19,0 20,7 21,8 21,3 17,2 4 2 7 4 W 1014,1 3,9 0,0
15.08.2020 01:00:00 21,0 19,0 20,6 22,1 21,3 17,2 4 2 11 6 W 1014,2 4,5 0,0
15.08.2020 00:00:00 21,2 19,4 21,0 22,3 21,4 17,2 7 4 14 8 WSW 1014,1 3,7 0,0
14.08.2020 23:00:00 21,7 19,8 20,8 22,7 21,4 17,2 7 4 7 4 W 1013,8 5 0,0
14.08.2020 22:00:00 21,5 19,7 21,0 23,0 21,4 17,2 4 2 11 6 W 1013,4 5 0,0
14.08.2020 21:00:00 22,3 19,8 21,8 23,3 21,4 17,2 7 4 11 6 NW 1013,2 6 0,0
14.08.2020 20:00:00 23,3 20,0 23,4 23,5 21,3 17,2 7 4 18 10 NW 1013,1 7 0,0
14.08.2020 19:00:00 24,0 20,0 25,1 23,6 21,2 17,2 7 4 25 14 W 1012,5 4,9 0,1
14.08.2020 18:00:00 26,2 19,7 27,0 23,6 21,0 17,2 14 8 25 14 WSW 1012,0 25 0,0
14.08.2020 17:00:00 27,5 17,5 28,0 23,5 20,8 17,1 11 6 18 10 SSW 1011,6 39 0,0
14.08.2020 16:00:00 27,8 17,4 32,0 23,1 20,7 17,1 14 8 25 14 SSW 1011,7 34 0,0
14.08.2020 15:00:00 28,1 17,9 33,3 22,6 20,5 17,1 11 6 25 14 SSW 1011,9 33 0,0
14.08.2020 14:00:00 27,8 17,8 33,4 22,0 20,4 17,1 14 8 25 14 SSE 1012,2 38 0,0
14.08.2020 13:00:00 27,6 16,9 32,6 21,3 20,4 17,1 11 6 18 10 S 1012,3 34 0,0
14.08.2020 12:00:00 26,6 17,2 30,8 20,9 20,4 17,1 7 4 18 10 SSW 1012,5 19 0,0
14.08.2020 11:00:00 25,8 18,9 28,2 20,5 20,5 17,1 11 6 22 12 S 1012,3 8 0,0
14.08.2020 10:00:00 24,6 20,3 25,2 20,4 20,6 17,1 11 6 22 12 S 1011,9 6 0,0
14.08.2020 09:00:00 22,3 19,9 22,0 20,4 20,7 17,1 7 4 11 6 SSE 1012,1 4,1 0,0
14.08.2020 08:00:00 20,2 19,3 19,3 20,6 20,8 17,1 4 2 11 6 SE 1012,0 2,3 0,0
14.08.2020 07:00:00 18,8 18,3 17,0 20,9 20,9 17,1 7 4 11 6 S 1012,0 2,3 0,0
14.08.2020 06:00:00 19,2 18,7 17,9 21,2 21,0 17,1 7 4 7 4 NE 1011,8 2,1 0,0
14.08.2020 05:00:00 19,6 18,8 18,4 21,5 21,1 17,1 7 4 14 8 ENE 1012,2 1,7 0,0
14.08.2020 04:00:00 19,6 19,0 18,4 21,8 21,2 17,1 4 2 7 4 S 1011,2 1,6 0,0
14.08.2020 03:00:00 20,4 19,4 19,7 22,0 21,3 17,1 4 2 7 4 SSE 1011,6 2,2 0,0
14.08.2020 02:00:00 21,6 19,9 20,9 22,3 21,3 17,1 11 6 18 10 S 1011,9 3,4 0,0
14.08.2020 01:00:00 22,4 20,9 21,9 22,5 21,4 17,1 7 4 14 8 SSW 1011,8 2,4 0,1
14.08.2020 00:00:00 23,1 21,3 22,6 22,7 21,4 17,1 7 4 11 6 SE 1012,1 3,0 0,0
13.08.2020 23:00:00 23,9 21,7 22,6 23,0 21,4 17,1 11 6 18 10 S 1011,8 6 0,0
13.08.2020 22:00:00 23,6 22,2 23,4 23,3 21,4 17,0 4 2 4 2 E 1011,0 6 0,0
13.08.2020 21:00:00 25,2 21,9 24,6 23,5 21,3 17,0 11 6 22 12 SSE 1010,9 13 0,1
13.08.2020 20:00:00 26,7 21,4 26,4 23,7 21,2 17,0 4 2 7 4 W 1010,5 27 0,0
13.08.2020 19:00:00 28,4 20,1 28,0 23,8 21,1 17,0 4 2 14 8 NW 1010,5 32 0,0
13.08.2020 18:00:00 29,2 19,0 28,8 23,8 20,9 17,0 4 2 11 6 SSW 1010,2 36 0,0
13.08.2020 17:00:00 30,7 17,1 33,1 23,5 20,8 17,0 4 2 11 6 SW 1010,4 38 0,0
13.08.2020 16:00:00 30,9 17,1 34,4 23,1 20,6 17,0 7 4 18 10 SE 1010,9 31 0,0
13.08.2020 15:00:00 30,7 16,6 34,7 22,6 20,5 17,0 11 6 18 10 SSE 1011,0 31 0,0
13.08.2020 14:00:00 29,6 18,6 31,5 22,1 20,4 17,0 7 4 14 8 SSE 1011,3 36 0,0
13.08.2020 13:00:00 29,0 19,8 31,7 21,6 20,3 17,0 7 4 14 8 SE 1011,4 31 0,0
13.08.2020 12:00:00 28,2 19,4 31,5 21,1 20,3 17,0 7 4 11 6 SE 1011,5 23 0,0
13.08.2020 11:00:00 26,1 19,1 28,9 20,7 20,4 17,0 7 4 14 8 SE 1011,6 24 0,0
13.08.2020 10:00:00 25,6 18,5 27,0 20,4 20,5 17,0 7 4 14 8 S 1011,5 25 0,0
13.08.2020 09:00:00 24,0 18,2 23,9 20,4 20,6 17,0 0 0 7 4 N 1011,6 21 0,0
13.08.2020 08:00:00 22,3 17,6 21,0 20,5 20,7 17,0 4 2 11 6 ESE 1011,6 19 0,0
13.08.2020 07:00:00 20,5 17,2 18,5 20,7 20,9 17,0 7 4 14 8 SE 1011,6 19 0,0
13.08.2020 06:00:00 20,5 16,9 17,5 21,0 21,0 16,9 11 6 14 8 ESE 1011,3 23 0,0
13.08.2020 05:00:00 19,4 16,7 17,1 21,3 21,1 16,9 4 2 7 4 ENE 1011,6 23 0,0
13.08.2020 04:00:00 19,3 17,4 17,3 21,6 21,3 16,9 4 2 7 4 ENE 1011,7 23 0,0
13.08.2020 03:00:00 20,5 17,5 18,0 22,0 21,4 16,9 7 4 11 6 ENE 1011,7 28 0,0
13.08.2020 02:00:00 20,4 17,9 18,8 22,3 21,5 16,9 4 2 7 4 ESE 1011,9 19 0,0
13.08.2020 01:00:00 22,5 17,4 19,5 22,7 21,5 16,9 7 4 11 6 E 1012,0 43 0,0
13.08.2020 00:00:00 24,2 17,5 21,3 23,0 21,6 16,9 7 4 11 6 ESE 1012,5 25 0,0
12.08.2020 23:00:00 25,2 18,2 21,7 23,4 21,6 16,9 7 4 14 8 ESE 1012,9 33 0,0
12.08.2020 22:00:00 24,5 20,2 23,0 23,8 21,6 16,9 7 4 11 6 NE 1012,4 21 0,0
12.08.2020 21:00:00 28,0 19,4 26,5 24,0 21,5 16,9 7 4 18 10 NNE 1012,1 36 0,0
12.08.2020 20:00:00 29,5 18,4 29,0 24,2 21,4 16,9 11 6 18 10 NNE 1011,7 29 0,0
12.08.2020 19:00:00 30,8 18,6 30,7 24,3 21,3 16,9 11 6 18 10 NE 1012,0 32 0,0
12.08.2020 18:00:00 30,9 18,3 31,1 24,7 21,1 16,9 7 4 18 10 NNE 1012,7 32 0,0
12.08.2020 17:00:00 31,5 18,7 34,9 24,5 20,9 16,9 11 6 18 10 ENE 1012,9 27 0,0
12.08.2020 16:00:00 31,6 17,4 34,6 24,1 20,7 16,9 11 6 25 14 E 1013,3 32 0,0
12.08.2020 15:00:00 31,3 17,7 35,5 23,5 20,6 16,9 7 4 22 12 ESE 1013,7 36 0,0
12.08.2020 14:00:00 31,0 18,1 35,8 22,9 20,5 16,9 11 6 22 12 SE 1014,0 32 0,0
12.08.2020 13:00:00 30,0 18,0 34,1 22,4 20,5 16,8 14 8 25 14 SSE 1014,4 30 0,0
12.08.2020 12:00:00 29,0 18,2 33,0 21,9 20,5 16,8 14 8 22 12 SE 1014,6 35 0,0
12.08.2020 11:00:00 27,8 19,2 30,5 21,6 20,5 16,8 11 6 14 8 SE 1014,6 27 0,0
12.08.2020 10:00:00 25,5 19,1 25,7 21,4 20,6 16,8 7 4 14 8 SE 1014,6 21 0,0
12.08.2020 09:00:00 23,7 19,1 23,3 21,4 20,7 16,8 7 4 11 6 ESE 1014,8 15 0,0
12.08.2020 08:00:00 22,5 18,7 20,9 21,6 20,8 16,8 4 2 11 6 SSE 1014,8 16 0,0
12.08.2020 07:00:00 22,1 18,6 20,7 21,8 20,9 16,8 7 4 14 8 E 1014,7 19 0,0
12.08.2020 06:00:00 21,9 18,8 20,6 22,0 21,0 16,8 7 4 14 8 ESE 1014,5 22 0,0
12.08.2020 05:00:00 23,0 18,2 20,8 22,2 21,1 16,8 14 8 18 10 SE 1014,3 37 0,0
12.08.2020 04:00:00 21,6 20,1 21,5 22,4 21,1 16,8 7 4 11 6 SE 1014,3 11 0,3
12.08.2020 03:00:00 22,7 20,2 22,2 22,7 21,2 16,8 4 2 7 4 SE 1014,8 15 0,0
12.08.2020 02:00:00 24,2 18,5 23,3 23,0 21,3 16,8 4 2 22 12 ENE 1015,4 30 0,0
12.08.2020 01:00:00 25,5 18,5 24,0 23,2 21,3 16,8 7 4 29 16 ESE 1015,6 29 0,0
12.08.2020 00:00:00 24,0 19,7 22,9 23,6 21,3 16,8 4 2 7 4 NW 1015,1 26 0,0
11.08.2020 23:00:00 24,7 19,4 23,5 23,9 21,3 16,8 4 2 7 4 SSW 1015,2 32 0,0
11.08.2020 22:00:00 26,1 18,6 24,3 24,2 21,2 16,8 7 4 11 6 ESE 1014,6 35 0,0
11.08.2020 21:00:00 27,2 19,7 26,6 24,4 21,1 16,8 4 2 11 6 NE 1013,7 38 0,0
11.08.2020 20:00:00 28,2 16,1 27,9 24,6 21,0 16,8 14 8 36 19 ESE 1013,5 38 0,0
11.08.2020 19:00:00 26,8 16,9 28,7 24,6 20,8 16,8 29 16 50 27 E 1014,0 36 0,0
11.08.2020 18:00:00 31,2 17,5 32,7 24,4 20,6 16,7 14 8 43 23 NE 1013,3 27 0,0
11.08.2020 17:00:00 33,6 16,3 36,6 24,1 20,4 16,7 7 4 18 10 W 1013,9 33 0,0
11.08.2020 16:00:00 33,6 17,7 37,2 23,6 20,2 16,7 11 6 18 10 SSE 1014,0 32 0,0
11.08.2020 15:00:00 33,4 17,1 36,7 23,0 20,0 16,7 14 8 25 14 SSE 1014,3 27 0,0
11.08.2020 14:00:00 33,0 17,5 37,8 22,2 19,9 16,7 11 6 18 10 SSE 1014,7 26 0,0
11.08.2020 13:00:00 32,2 17,3 37,1 21,5 19,8 16,7 14 8 22 12 ESE 1014,8 32 0,0
11.08.2020 12:00:00 30,2 17,3 34,2 21,0 19,8 16,7 11 6 18 10 ESE 1015,0 29 0,0
11.08.2020 11:00:00 28,6 18,1 32,8 20,6 19,8 16,7 11 6 18 10 E 1015,2 31 0,0
11.08.2020 10:00:00 26,7 18,0 28,8 20,3 19,9 16,7 11 6 18 10 E 1015,0 28 0,0
11.08.2020 09:00:00 24,5 17,3 24,5 20,2 20,0 16,7 11 6 22 12 E 1015,1 27 0,0
11.08.2020 08:00:00 22,9 16,7 22,1 20,3 20,1 16,7 11 6 18 10 E 1015,1 27 0,0
11.08.2020 07:00:00 21,9 16,4 19,9 20,5 20,2 16,7 11 6 18 10 ENE 1014,8 29 0,0
11.08.2020 06:00:00 21,8 16,1 19,7 20,7 20,3 16,7 7 4 18 10 E 1014,8 29 0,0
11.08.2020 05:00:00 22,5 15,8 20,1 20,9 20,5 16,7 14 8 22 12 ENE 1014,7 37 0,0
11.08.2020 04:00:00 21,9 15,7 19,6 21,2 20,6 16,7 7 4 14 8 NE 1014,7 39 0,0
11.08.2020 03:00:00 23,5 16,0 20,5 21,5 20,7 16,7 11 6 18 10 ENE 1015,0 42 0,0
11.08.2020 02:00:00 24,0 16,0 19,9 21,8 20,8 16,7 11 6 18 10 ENE 1015,3 40 0,0
11.08.2020 01:00:00 21,8 16,9 18,2 22,2 20,8 16,6 11 6 14 8 ENE 1015,3 34 0,0
11.08.2020 00:00:00 22,4 16,8 19,0 22,6 20,9 16,6 11 6 11 6 NE 1015,0 37 0,0
10.08.2020 23:00:00 22,2 17,9 20,1 22,9 20,9 16,6 7 4 11 6 NE 1015,1 36 0,0
10.08.2020 22:00:00 24,4 17,6 22,0 23,3 20,8 16,6 7 4 11 6 NE 1014,7 28 0,0
10.08.2020 21:00:00 28,3 15,8 26,2 23,5 20,8 16,6 11 6 18 10 ENE 1014,1 47 0,0
10.08.2020 20:00:00 30,3 15,9 29,5 23,7 20,7 16,6 11 6 18 10 E 1013,9 27 0,0
10.08.2020 19:00:00 31,0 16,4 30,0 23,7 20,5 16,6 11 6 22 12 E 1013,6 36 0,0
10.08.2020 18:00:00 31,6 14,9 32,5 23,6 20,4 16,6 14 8 22 12 ENE 1013,7 46 0,0
10.08.2020 17:00:00 31,5 15,6 32,4 23,4 20,2 16,6 14 8 22 12 E 1014,1 37 0,0
10.08.2020 16:00:00 32,0 15,0 34,0 23,1 20,0 16,6 18 10 25 14 E 1014,3 40 0,0
10.08.2020 15:00:00 32,2 16,0 35,1 22,5 19,9 16,6 18 10 32 18 E 1014,6 33 0,0
10.08.2020 14:00:00 32,1 15,9 35,7 21,9 19,8 16,6 14 8 29 16 E 1014,8 31 0,0
10.08.2020 13:00:00 30,7 16,7 33,8 21,3 19,7 16,6 18 10 29 16 ESE 1015,0 32 0,0
10.08.2020 12:00:00 29,8 16,2 33,6 20,8 19,7 16,6 18 10 22 12 E 1015,1 32 0,0
10.08.2020 11:00:00 28,3 16,5 31,8 20,5 19,8 16,6 14 8 22 12 ENE 1015,2 35 0,0
10.08.2020 10:00:00 26,6 17,1 28,6 20,2 19,9 16,5 14 8 22 12 E 1015,2 30 0,0
10.08.2020 09:00:00 24,8 17,2 23,6 20,2 20,0 16,5 7 4 14 8 E 1015,2 35 0,0
10.08.2020 08:00:00 22,1 16,6 20,7 20,2 20,1 16,5 7 4 11 6 NE 1015,3 38 0,0
10.08.2020 07:00:00 20,4 16,1 17,5 20,5 20,2 16,5 4 2 7 4 NE 1015,4 39 0,0
10.08.2020 06:00:00 19,0 16,1 16,4 20,8 20,4 16,5 7 4 11 6 ENE 1015,4 31 0,0
10.08.2020 05:00:00 19,1 16,4 16,4 21,1 20,5 16,5 7 4 11 6 ENE 1015,6 32 0,0
10.08.2020 04:00:00 20,4 16,5 17,9 21,4 20,6 16,5 7 4 11 6 E 1016,0 33 0,0
10.08.2020 03:00:00 21,8 16,5 19,7 21,7 20,7 16,5 7 4 18 10 E 1015,8 41 0,0
10.08.2020 02:00:00 22,9 16,5 20,5 22,0 20,7 16,5 14 8 25 14 E 1015,7 47 0,0
10.08.2020 01:00:00 22,6 16,0 20,8 22,4 20,8 16,5 11 6 14 8 ENE 1015,8 49 0,0
10.08.2020 00:00:00 24,4 15,8 22,9 22,7 20,8 16,5 14 8 22 12 NE 1015,7 48 0,0
09.08.2020 23:00:00 25,6 16,0 23,8 23,1 20,9 16,5 14 8 22 12 NE 1015,7 48 0,0
09.08.2020 22:00:00 26,5 16,9 24,9 23,4 20,8 16,5 14 8 22 12 NE 1016,0 49 0,0
09.08.2020 21:00:00 28,2 17,1 26,9 23,7 20,7 16,5 18 10 29 16 NE 1015,6 45 0,0

tt = temperature
td = dewpoint
tt 5cm = temperature 5cm
tt -5cm = temperature -5cm
tt -20cm = temperature -20cm
tt -100cm = temperature -100cm
ff = wind speed
fx = gusts
dd = wind direction
ppp = reduced air pressure
vv = visibility
rr = precipitation

Next stations